Regional Weather Roundup
Issued by NWS Wilmington, NC

Home | Current Version | Previous Version | Text Only | Print | Product List | Glossary On
Versions: 1 2 3 4 5 6 7 8 9 10 11 12 13 14 15 16 17 18 19 20 21 22 23 24 25 26 27 28 29 30 31 32 33 34 35 36 37 38 39 40 41 42 43 44 45 46 47 48 49 50
000
ASUS42 KILM 300810
RWRILM
RWRILM
REGIONAL HOURLY WEATHER ROUNDUP
NATIONAL WEATHER SERVICE WILMINGTON NC
400 AM EDT SAT AUG 30 2014

NOTE: "FAIR" INDICATES FEW OR NO CLOUDS BELOW 12,000 FEET WITH NO
SIGNIFICANT WEATHER AND/OR OBSTRUCTIONS TO VISIBILITY.

...............WFO WILMINGTON COUNTY WARNING AREA...............

......COASTAL NC AND SC COUNTIES......

CITY           SKY/WX    TMP DP  RH WIND       PRES   REMARKS
WILMINGTON     PTCLDY    72  70  93 NE5       30.15F
SOUTHPORT      PTCLDY    76  73  90 CALM      30.15S
N MYRTLE BEACH CLEAR     77  75  93 CALM      30.14S
MYRTLE BEACH   CLEAR     79  73  83 CALM      30.14S

......INLAND NC AND SC COUNTIES.......

CITY           SKY/WX    TMP DP  RH WIND       PRES   REMARKS
LUMBERTON      CLEAR     71  69  93 CALM      30.15S
ELIZABETHTOWN  CLEAR     71  71 100 CALM      30.16F
WHITEVILLE     CLEAR     71  70  96 CALM      30.15S
FLORENCE       PTCLDY    74  71  91 CALM      30.14F
DARLINGTON     CLEAR     72  66  83 CALM      30.16F

....................REST OF NORTH CAROLINA......................

.........EASTERN NC.........

CITY           SKY/WX    TMP DP  RH WIND       PRES   REMARKS
CAPE HATTERAS  MOCLDY    75  75 100 E3        30.17S
JACKSONVILLE   PTCLDY    72  68  88 CALM      30.17S
MOREHEAD CITY  CLEAR     75  73  93 CALM      30.16S
KENANSVILLE    MOCLDY    72  70  94 CALM      30.18S FOG
NEW BERN       CLEAR     72  68  87 CALM      30.18S
ELIZABETH CITY CLOUDY    74  67  78 E7        30.19S

.........CENTRAL NC.........

CITY           SKY/WX    TMP DP  RH WIND       PRES   REMARKS
RALEIGH DURHAM CLOUDY    73  68  84 SE3       30.19R
ROCKY MOUNT    MOCLDY    69  67  93 CALM      30.19R
ROANOKE RAPIDS NOT AVBL
FAYETTEVILLE   CLEAR     72  69  90 CALM      30.16S
HOFFMAN        CLEAR     70  69  97 VRB1      30.18S

.........WESTERN NC.........

CITY           SKY/WX    TMP DP  RH WIND       PRES   REMARKS
CHARLOTTE      PTCLDY    73  69  87 CALM      30.18S
GREENSBORO     CLOUDY    74  71  91 S6        30.19S
HICKORY        NOT AVBL
BOONE          NOT AVBL
ASHEVILLE      NOT AVBL

.....................REST OF SOUTH CAROLINA.....................

.........EASTERN SC.........

CITY           SKY/WX    TMP DP  RH WIND       PRES   REMARKS
CHARLESTON     PTCLDY    77  74  90 CALM      30.13S
BEAUFORT MCAS  CLEAR     76  73  91 CALM      30.12S
HILTON HEAD    NOT AVBL

.........CENTRAL SC.........

CITY           SKY/WX    TMP DP  RH WIND       PRES   REMARKS
COLUMBIA       PTCLDY    75  68  78 CALM      30.13F
ORANGEBURG     CLEAR     71  68  90 CALM      30.14F
SUMTER SHAW    CLEAR     73  73 100 NE6       30.13S

.........WESTERN SC.........

CITY           SKY/WX    TMP DP  RH WIND       PRES   REMARKS
GREENVILLE     NOT AVBL
ROCK HILL      CLEAR     71  69  93 SW3       30.17F
ANDERSON       CLEAR     72  64  76 CALM      30.15S
CLEMSON        NOT AVBL
GREENWOOD      CLEAR     69  63  81 E3        30.15F


...................COASTAL AND OFFSHORE REPORTS..................

................LOCAL PIERS AND NC RESERVE................


STATION/POSITION TIME  SKY/WX   TEMP    WIND        PRES    VSBY
                                AIR SEA DIR/SP/G
                 (UTC)          (F)     (DEG/KT/KT) (MB)    (MI)
JOHNY MRCER PIER 0800            81 83  170/  5/  6 1020.4F
NC RESRV MASNBRO 0700            77     280/  1     1021.0S
OCEAN CREST PIER 0800            82 84  130/  7/  8 1019.8F
SPRINGMAID  PIER 0800            81 83  250/  4/  4 1020.4S


................COASTAL AND OFFSHORE BUOYS................


STATION/POSITION TIME  SKY/WX   TEMP    WIND        PRES    VSBY
                                AIR SEA DIR/SP/G
                 (UTC)          (F)     (DEG/KT/KT) (MB)    (MI)
DIMNDSHOAL 41025 0800            79      20/ 10/ 12 1021.2F
WVE H/P(F/S)=  4/ 8 WND WVE H/P(F/S)=  2/ 5 SWL H/P/D(F/S/D)=  3/ 80/ 8

CAPE LOOKOUT     0700            80      70/  4/  4 1021.2S
ONSLOW BAY 41036 0800            82 82  210/  8/  8 1021.5F
WVE H/P(F/S)=  3/ 8 WND WVE H/P(F/S)=  2/ 3 SWL H/P/D(F/S/D)=  3/120/ 8

5 WRITEBCH 41038 0800            78 81  170/  6/  8   N/A
MASONBORO  41110 0800               81                N/A
WVE H/P(F/S)=  2/ 8 WND WVE H/P(F/S)=  2/ 8

WILM HARBR 41108 0800               82                N/A
WVE H/P(F/S)=  2/ 8 WND WVE H/P(F/S)=  2/ 8

27WRITEBCH 41037 0700            78 81  190/  6/  8 1021.0R
FRYING PAN 41013 NOT AVBL
SUNST NRSH 41024 0700            82     170/  6/  8 1020.6R
CAPRS NRSH 41029 0700            81     150/  2/  4   N/A
EDISTO     41004 0800            82 83   CALM  /  4 1019.8S
WVE H/P(F/S)=  3/ 8



..........OFFSHORE BUOYS BEYOND 100 NM OFFSHORE...........
.....IN A TRIANGLE---HAT TO BERMUDA TO BAHAMAS TO HAT.....


STATION/POSITION TIME  SKY/WX   TEMP    WIND        PRES    VSBY
                                AIR SEA DIR/SP/G
                 (UTC)          (F)     (DEG/KT/KT) (MB)    (MI)
150E HAT   41001 NOT AVBL
W BERMUDA  41048 0749            79 79   20/  8/  8 1021.2R
WVE H/P(F/S)=  4/ 7 WND WVE H/P(F/S)=  2/ 4 SWL H/P/D(F/S/D)=  3/ 50/ 7

ATLANTIC S 41049 0658            83 86  130/  2/  4 1019.9S
WVE H/P(F/S)=  5/ 9 SWL H/P/D(F/S/D)=  5/350/ 9

E BAHAMAS  41046 0720            83 84   80/ 10/ 12 1018.8F
WVE H/P(F/S)=  4/ 9 WND WVE H/P(F/S)=  2/ 5 SWL H/P/D(F/S/D)=  3/100/ 9

NE BAHAMAS 41047 0741            81 84  110/  6/  8 1020.3F
WVE H/P(F/S)=  5/ 9 WND WVE H/P(F/S)=  2/ 4 SWL H/P/D(F/S/D)=  5/110/ 9

120E CANVRL41010 0800            81 83  110/  4/  6 1019.0R
WVE H/P(F/S)=  3/ 8 SWL H/P/D(F/S/D)=  3/ 90/ 8


END



USA.gov is the U.S. government's official web portal to all federal, state and local government web resources and services.